User: anonymous   Login
Location: Caltech
(34.1382°N, 118.1253°W)
Time: 15:00:17
(UTC-07:00)
Language:

PANSAT - Orbit

View from above orbital plane
View from above orbital plane
View from above satellite
View from above satellite

Ground track
Ground track

The orbit data is extracted from the following two-line orbital elements,

1 25520U 98064B   16206.90112657 +.00000866 +00000-0 +23088-4 0  9992
2 25520 028.4583 052.5860 0005415 338.9651 021.0721 15.27786520983851
Epoch (UTC): 24 July 2016 21:37:37
Eccentricity: 0.0005415
inclination: 28.4583°
perigee height: 479 km
apogee height: 486 km
right ascension of ascending node: 52.5860°
argument of perigee: 338.9651°
revolutions per day: 15.27786520
mean anomaly at epoch: 21.0721°
orbit number at epoch: 98385

The dashed part of the orbit path shows where the satellite is in the earth's shadow,  

DLR